SKY MEXICO-1

Last updated on Fri Dec 19 2025 00:02:51 GMT+0000 (Coordinated Universal Time)

1 40664U 15026B 25352.51082889 -.00000209 00000+0 00000+0 0 9992 2 40664 0.0138 315.7301 0002280 328.1914 268.5854 1.00272146 38646
UTC large
Height (km)
Speed (km/s)
/
Latitude / Longitude
Inclination (degrees)
Orbital Period (minutes)
Azimuth
Elevation
Range (km)
Doppler Factor

Next 0 passes for location: London (51.5072 / 0.1276)

Sorry there are no passes over London.